Fort Riley, KS

4:42 PM CDT on August 24, 2016 (GMT -0500)
Marshall Army Air Field

Weather History for KFRI - August, 2014

Change the Weather History Date:

Wednesday, August 27, 2014

  Actual Average (KMHK) Record (KMHK)
Temperature  
Mean Temperature 80 °F 75 °F  
Max Temperature 90 °F 88 °F 99 °F (1998)
Min Temperature 71 °F 63 °F 55 °F (2010)
Degree Days  
Heating Degree Days 0 0  
Month to date heating degree days 0  
Since 1 June heating degree days 12  
Since 1 July heating degree days 1  
Cooling Degree Days 15 10  
Month to date cooling degree days 339  
Year to date cooling degree days 1145  
Since 1 June cooling degree days 1045  
Growing Degree Days 30 (Base 50)    
Moisture  
Dew Point 72 °F    
Average Humidity 76    
Maximum Humidity 100    
Minimum Humidity 48    
Precipitation  
Precipitation 0.00 in 0.16 in 2.05 in (2006)
Month to date precipitation 3.63  
Year to date precipitation 23.89  
Sea Level Pressure  
Sea Level Pressure 30.04 in    
Wind  
Wind Speed 4 mph (East)    
Max Wind Speed 14 mph    
Max Gust Speed 18 mph    
Visibility 10 miles    
Events      
T = Trace of Precipitation, MM = Missing Value Source: NWS Daily Summary

Daily Weather History Graph

Daily Weather History Graph

Search for Another Location

Airport or City:

Trip Planner

Search our weather history database for the weather conditions in past years. The results will help you decide how hot, cold, wet, or windy it might be!

Date:

Astronomy

Aug. 27, 2014 Rise Set
Actual Time 6:51 AM CDT 8:05 PM CDT
Civil Twilight 6:23 AM CDT 8:32 PM CDT
Nautical Twilight 5:50 AM CDT 9:05 PM CDT
Astronomical Twilight 5:15 AM CDT 9:40 PM CDT
Moon 8:47 AM CDT (8/27) 8:59 PM CDT (8/27)
Length of Visible Light 14h 09m
Length of Day
13h 13m
Waxing Crescent, 4% of the Moon is Illuminated
Aug 27
Waxing Crescent
Sep 2
First Quarter
Sep 8
Full
Sep 15
Last Quarter
Sep 24
New

Hourly Weather History & Observations

Time (CDT) Temp. Heat Index Dew Point Humidity Pressure Visibility Wind Dir Wind Speed Gust Speed Precip Events Conditions
12:58 AM 73.6 °F - 73.6 °F 100% 30.04 in 10.0 mi ENE 5.8 mph - N/A   Scattered Clouds
1:58 AM 71.8 °F - 71.8 °F 100% 30.03 in 10.0 mi NNE 5.8 mph - N/A   Clear
2:58 AM 72.3 °F - 72.3 °F 100% 30.03 in 10.0 mi North 4.6 mph - N/A   Mostly Cloudy
3:58 AM 72.7 °F - 72.7 °F 100% 30.00 in 10.0 mi NNE 2.3 mph - N/A   Scattered Clouds
4:58 AM 72.3 °F - 72.3 °F 100% 30.00 in 10.0 mi Variable 1.2 mph - N/A   Scattered Clouds
5:58 AM 73.8 °F - 73.8 °F 100% 30.02 in 10.0 mi SSW 3.5 mph - N/A   Mostly Cloudy
6:58 AM 73.8 °F - 73.8 °F 100% 30.03 in 10.0 mi North 2.3 mph - N/A   Partly Cloudy
7:58 AM 73.8 °F - 73.8 °F 100% 30.04 in 10.0 mi SSE 2.3 mph - N/A   Partly Cloudy
8:32 AM 77.0 °F - 75.2 °F 94% 30.09 in 10.0 mi SE 3.5 mph - N/A   Light Drizzle
8:40 AM 77.0 °F - 75.2 °F 94% 30.09 in 10.0 mi ESE 2.3 mph - N/A   Mostly Cloudy
8:43 AM 77.0 °F - 75.2 °F 94% 30.09 in 10.0 mi Variable 2.3 mph - N/A   Light Drizzle
8:58 AM 76.8 °F - 74.3 °F 92% 30.06 in 10.0 mi South 3.5 mph - 0.00 in   Light Drizzle
9:07 AM 77.0 °F - 73.4 °F 89% 30.09 in 10.0 mi SSW 4.6 mph - N/A   Mostly Cloudy
9:29 AM 78.8 °F - 71.6 °F 78% 30.09 in 10.0 mi Variable 2.3 mph - N/A   Light Drizzle
9:40 AM 78.8 °F - 71.6 °F 78% 30.10 in 10.0 mi Variable 1.2 mph - N/A   Clear
9:58 AM 80.1 °F 83.8 °F 72.0 °F 76% 30.07 in 10.0 mi SSE 2.3 mph - 0.00 in   Partly Cloudy
10:01 AM 80.6 °F 84.6 °F 71.6 °F 74% 30.10 in 10.0 mi Calm Calm - N/A   Light Drizzle
10:18 AM 80.6 °F 84.6 °F 71.6 °F 74% 30.10 in 10.0 mi Variable 3.5 mph - N/A   Clear
10:48 AM 82.4 °F 87.2 °F 71.6 °F 70% 30.11 in 10.0 mi East 3.5 mph - N/A   Light Drizzle
10:58 AM 82.8 °F 87.2 °F 70.9 °F 67% 30.08 in 10.0 mi Variable 1.2 mph - 0.00 in   Light Drizzle
10:59 AM 82.4 °F 87.2 °F 71.6 °F 70% 30.11 in 10.0 mi Calm Calm - N/A   Mostly Cloudy
11:00 AM 82.4 °F 87.2 °F 71.6 °F 70% 30.11 in 10.0 mi Variable 2.3 mph - N/A   Light Drizzle
11:02 AM 82.4 °F 87.2 °F 71.6 °F 70% 30.11 in 10.0 mi NE 3.5 mph - N/A   Mostly Cloudy
11:08 AM 84.2 °F 89.6 °F 71.6 °F 66% 30.11 in 10.0 mi Calm Calm - N/A   Light Drizzle
11:09 AM 84.2 °F 89.6 °F 71.6 °F 66% 30.11 in 10.0 mi Variable 1.2 mph - N/A   Scattered Clouds
11:58 AM 84.9 °F 89.4 °F 70.0 °F 61% 30.07 in 10.0 mi Variable 1.2 mph - 0.00 in   Clear
12:58 PM 88.5 °F 91.9 °F 67.5 °F 50% 30.05 in 10.0 mi SW 2.3 mph - N/A   Partly Cloudy
1:58 PM 87.4 °F 89.8 °F 66.4 °F 49% 30.04 in 10.0 mi Variable 3.5 mph - N/A   Partly Cloudy
2:58 PM 88.3 °F 90.9 °F 66.2 °F 48% 30.03 in 10.0 mi West 2.3 mph - N/A   Partly Cloudy
3:57 PM 89.6 °F 93.4 °F 68.0 °F 49% 30.03 in 10.0 mi West 4.6 mph - N/A   Light Drizzle
3:58 PM 89.6 °F 93.4 °F 68.0 °F 49% 30.00 in 10.0 mi WNW 4.6 mph - N/A   Light Drizzle
4:08 PM 89.6 °F 93.4 °F 68.0 °F 49% 30.03 in 10.0 mi NW 2.3 mph - N/A   Partly Cloudy
4:58 PM 88.9 °F 91.8 °F 67.1 °F 48% 29.96 in 10.0 mi East 6.9 mph - 0.00 in   Scattered Clouds
5:58 PM 88.0 °F 93.8 °F 71.1 °F 57% 29.95 in 10.0 mi East 13.8 mph 18.4 mph N/A   Clear
6:58 PM 86.2 °F 91.8 °F 71.2 °F 61% 29.96 in 10.0 mi East 9.2 mph - N/A   Scattered Clouds
7:58 PM 82.8 °F 87.7 °F 71.8 °F 69% 29.96 in 10.0 mi East 9.2 mph - N/A   Mostly Cloudy
8:58 PM 81.0 °F 85.6 °F 72.9 °F 76% 29.96 in 10.0 mi ENE 8.1 mph - N/A   Overcast
9:41 PM 80.6 °F 85.4 °F 73.4 °F 79% 30.00 in 10.0 mi ENE 4.6 mph - N/A   Light Drizzle
9:51 PM 80.6 °F 85.4 °F 73.4 °F 79% 30.00 in 10.0 mi Variable 3.5 mph - N/A   Overcast
9:58 PM 80.4 °F 84.8 °F 72.9 °F 78% 29.97 in 10.0 mi Variable 5.8 mph - 0.00 in   Overcast
10:58 PM 79.9 °F - 70.5 °F 73% 29.96 in 8.0 mi East 3.5 mph - N/A   Overcast
11:58 PM 79.7 °F - 72.1 °F 78% 29.94 in 10.0 mi SE 8.1 mph - N/A   Overcast